Flag for Germany Weather past 2 weeks in Neu-Ulm, Bavaria, Germany

Now
59 °F

More clouds than sun.


Feels Like: 57 °F
Forecast: 57 / 69 °F
Wind: 10 mph from Southwest

Location: Laupheim Airport

Current Time: May 3, 2015 at 12:50:37 PM

Latest Report: May 3, 2015 at 12:20 PM


Visibility: N/A

Pressure: 29.80 "Hg

Humidity: 88%

Dew point: 55 °F

Location of Neu-UlmLocation

Historic Weather in Neu-Ulm — Graph

°F

Neu-Ulm temperature yesterday

Maximum temperature yesterday: 57 °F (at 1:20 PM)
Minimum temperature yesterday: 45 °F (at 1:20 AM)
Average temperature yesterday: 51 °F

Past Weeks' High & Low Weather Summary

 TemperatureHumidityPressure
High68 °F (Apr 21, 6:20 PM)100% (Apr 28, 1:20 AM)30.39 "Hg (Apr 28, 1:20 AM)
Low30 °F (Apr 19, 5:20 AM)22% (Apr 22, 3:20 PM)29.50 "Hg (Apr 27, 5:00 PM)
Average50 °F70%29.98 "Hg
* Reported Apr 18 11:20 AM — May 3 11:20 AM, Neu-Ulm, Weather by CustomWeather, © 2015

Note: Actual official high and low records may vary slightly from our data, if they occured in-between our weather recording intervals... More about our weather records

Advertising

Neu-Ulm weather history for previous 24 hours

 ConditionsComfort  
Time TempWeatherWind HumidityBarometerVisibility
11:20 AM
Sun, May 3
57 °FPartly sunny.10 mph94%29.80 "HgN/A
10:20 AM55 °FLight rain. Partly sunny.10 mph94%29.80 "HgN/A
9:20 AM54 °FLight rain. Partly sunny.8 mph100%29.77 "HgN/A
8:20 AM52 °FLight rain. Mostly cloudy.6 mph100%29.77 "HgN/A
7:20 AM52 °FLight rain. Mostly cloudy.6 mph94%29.77 "HgN/A
6:20 AM50 °FLight rain. Overcast.3 mph100%29.77 "HgN/A
5:20 AM50 °FRain. Mostly cloudy.6 mph100%29.77 "Hg5 mi
4:20 AM50 °FRain. Passing clouds.7 mph100%29.77 "Hg5 mi
3:20 AM50 °FLight rain. Passing clouds.5 mph100%29.80 "Hg5 mi
2:20 AM52 °FLight rain. Passing clouds.6 mph94%29.80 "Hg5 mi
1:20 AM52 °FRain. Passing clouds.6 mph94%29.83 "Hg4 mi
12:20 AM52 °FLight rain. Mostly cloudy.2 mph100%29.86 "HgN/A
11:20 PM
Sat, May 2
52 °FLight rain. Mostly cloudy.3 mph100%29.86 "HgN/A
10:20 PM54 °FLight rain. Mostly cloudy.3 mph94%29.89 "HgN/A
9:20 PM54 °FPartly sunny.6 mph94%29.86 "HgN/A
8:20 PM54 °FBroken clouds.5 mph88%29.86 "HgN/A
7:20 PM55 °FBroken clouds.3 mph82%29.89 "HgN/A
6:20 PM55 °FPartly sunny.1 mph72%29.89 "HgN/A
5:20 PM57 °FPartly sunny.5 mph77%29.89 "HgN/A
4:20 PM57 °FPartly sunny.5 mph72%29.89 "HgN/A
3:20 PM57 °FPartly sunny.1 mph72%29.89 "HgN/A
2:20 PM57 °FBroken clouds.2 mph72%29.89 "HgN/A
1:20 PM57 °FBroken clouds.3 mph67%29.89 "HgN/A
12:20 PM54 °FBroken clouds.2 mph82%29.89 "HgN/A
Weather by CustomWeather, © 2015

See weather overviewHow to use our weather pages